www.pogodaiklimat.ru

Погода и климат >> Архив погоды >> Россия >> Новгородская область >> Крестцы


ПОГОДА в Крестцах

  • Прогноз погоды в Крестцах
  • Монитор погоды в Крестцах
  • Климат города

АРХИВ ПОГОДЫ в Крестцах

Время (UTC), дата Ветер
(напр.,м/с)
 
Видим.   Явления Облачность Т
(С)
Тd
(С)
f
(%)
Тe
(С)
Тes
(С)
Комфортность P
(гПа)
Po
(гПа)
Тmin
(С)
Tmax
(С)
R
(мм)
R24
(мм)
S
(см)
09 8.11 В 1 н/о н/о +3.7 +3.6 99 +2 +2 1025.1 1017.1
12 8.11 В 1 н/о н/о +4.0 +3.8 99 +2 +2 1024.9 1016.9
15 8.11 В 1 н/о н/о +3.7 +3.7 100 +2 +2 1024.7 1016.7 0.2
18 8.11 В 1 4000 м слабая морось 10/10 240 м
[St]
+3.3 +3.3 100 +2 +2 1024.9 1016.9 +4.1 0.4
21 8.11 В 1 н/о н/о +3.2 +3.2 100 +1 +1 1025.2 1017.2
00 9.11 штиль 0 н/о н/о +3.0 +3.0 100 +2 +2 1025.2 1017.2
03 9.11 В 1 н/о н/о +2.9 +2.9 100 +1 +1 1024.9 1016.9 +2.8
06 9.11 штиль 0 20 км 10/10 420 м
[Sc]
+2.8 +2.7 99 +2 +2 1025.2 1017.2 +2.7 0.3
09 9.11 ЮВ 1 н/о н/о +3.5 +2.9 96 +2 +2 1025.6 1017.6
12 9.11 ЮВ 1 н/о н/о +3.6 +2.0 89 +2 +2 1025.4 1017.4
15 9.11 ЮВ 1 н/о н/о +2.9 +2.2 95 +1 +1 1025.4 1017.4
18 9.11 ЮВ 1 20 км 10/10 660 м
[Sc]
+2.6 +2.3 98 +1 +1 1025.2 1017.2 +3.8
21 9.11 ЮВ 1 н/о н/о +2.6 +2.0 96 +1 +1 1025.7 1017.7
00 10.11 ЮВ 1 н/о н/о +2.6 +1.4 92 +1 +1 1025.6 1017.6
03 10.11 ЮВ 1 н/о н/о +2.1 +1.2 94 0 0 1025.6 1017.6 +2.1
06 10.11 ЮВ 1 20 км 10/10 450 м
[Sc]
+2.3 +1.3 93 +1 +1 1026.3 1018.3 +2.0
09 10.11 В 2 н/о н/о +3.2 +1.7 90 0 0 1027.1 1019.1
12 10.11 В 2 н/о н/о +2.9 +0.5 84 -0 -0 1027.9 1019.9
15 10.11 В 2 н/о н/о +2.3 +0.5 88 -1 -1 1029.2 1021.1
18 10.11 В 3 20 км 10/10 540 м
[Sc]
+2.2 -0.1 85 -2 -2 1030.6 1022.5 +3.5
21 10.11 ЮВ 2 н/о н/о +2.5 +0.2 85 -1 -1 1032.0 1023.9
00 11.11 В 2 н/о н/о +2.5 +0.7 88 -1 -1 1033.4 1025.3
03 11.11 ЮВ 3 н/о н/о +2.2 +0.4 88 -2 -2 1034.3 1026.2 +2.1
06 11.11 ЮВ 3 20 км в посл. час ливневой дождь 10/10 480 м
[Cb calv]
+1.9 +0.6 91 -2 -2 1035.5 1027.4 +1.8 0.0
09 11.11 ЮВ 3 н/о н/о +2.2 +0.3 87 -2 -2 1036.6 1028.5
12 11.11 ЮВ 3 н/о н/о +2.4 -0.8 79 -2 -2 1037.2 1029.1
15 11.11 ЮВ 4 н/о н/о +1.9 -1.7 77 -3 -3 1037.8 1029.7
18 11.11 ЮВ 4 20 км 10/10 930 м
[Cb calv]
+1.2 -3.0 74 -4 -4 1037.9 1029.7 +2.5
21 11.11 ЮВ 3 н/о н/о +0.2 -4.3 72 -4 -4 1038.1 1029.9
00 12.11 Ю 3 н/о н/о +0.7 -4.2 70 -4 -4 1037.7 1029.5
03 12.11 ЮВ 4 н/о н/о +1.0 -3.8 70 -4 -4 1036.8 1028.6 +0.2
06 12.11 ЮВ 4 20 км 10/10 1020 м
[Sc]
-0.3 -4.7 72 -6 -6 1036.7 1028.5 -0.4
09 12.11 Ю 4 н/о н/о -0.9 -5.3 72 -6 -6 1036.5 1028.3
12 12.11 Ю 3 н/о н/о -0.5 -5.5 69 -5 -5 1035.6 1027.4
15 12.11 Ю 4 н/о н/о +0.1 -4.3 72 -5 -5 1034.8 1026.6
18 12.11 Ю 3 20 км 10/10 1350 м
[Sc]
+0.5 -4.5 69 -4 -4 1033.9 1025.7 +0.6
21 12.11 Ю 3 н/о н/о +0.1 -4.0 74 -4 -4 1033.2 1025.0
00 13.11 Ю 2 н/о н/о -0.5 -3.9 78 -4 -4 1032.0 1023.8
03 13.11 Ю 2 н/о н/о +0.1 -3.3 78 -3 -3 1030.0 1021.9 -0.7
06 13.11 Ю 3 10 км слабый переохл. дождь (гололёд) 10/10 300 м
[Frnb Ns]
-0.3 -1.6 91 -5 -5 1027.7 1019.6 -0.7 0.6
09 13.11 Ю 2 н/о н/о +0.4 -0.3 95 -3 -3 1025.3 1017.2
12 13.11 Ю 2 н/о н/о +1.0 +0.4 96 -3 -3 1023.3 1015.3
15 13.11 Ю 3 н/о н/о +2.2 +0.4 88 -2 -2 1022.6 1014.6 2
18 13.11 Ю 2 10 км слабый ливневой дождь 10/10 500 м
[Cb cap]
+1.3 +0.5 94 -2 -2 1021.9 1013.9 +2.4 2
21 13.11 Ю 3 н/о н/о +0.5 +0.1 97 -4 -4 1021.3 1013.3
00 14.11 Ю 2 н/о н/о 0.0 0.0 100 -4 -4 1020.3 1012.2
03 14.11 Ю 1 н/о н/о 0.0 0.0 100 -2 -2 1019.6 1011.6 0.0 12
06 14.11 штиль 0 2000 м слабый снег 10/10 210 м
[Frnb Ns]
0.0 0.0 100 -1 -1 1019.5 1011.5 0.0 14 6
09 14.11 Ю 1 н/о н/о +0.2 +0.1 99 -2 -2 1020.3 1012.3
12 14.11 Ю 1 н/о н/о 0.0 -0.1 99 -2 -2 1021.2 1013.1
15 14.11 Ю 1 н/о н/о -0.3 -0.3 100 -3 -3 1022.9 1014.8 8
18 14.11 штиль 0 10 км слабый снег 10/10 300 м
[Frnb Ns]
-0.7 -0.7 100 -2 -2 1024.4 1016.3 +0.3 9

 

Местоположение метеостанции Крестцы (Новгородская область, Россия): широта 58.27 долгота 32.52 высота над уровнем моря 63 м.

В архиве по умолчанию представлена погода в Крестцах за последнюю неделю. Архивные данные за месяц целиком и за предыдущие месяцы, начиная с января 2011 года, Вы можете получить, выбрав интересующий диапазон дат из раскрывающегося списка и нажав кнопку "Ввод!".


*Определитесь, кто Вы:
робот инопланетянин человек

Внимание! Время в таблицах - всемирное. Для получения местного времени необходимо прибавить поправку, которая в Крестцах равна 3 ч.

Смотрите также архив погоды в соседних городах и на ближайших метеорологических станциях:

Погода в Окуловке (Новгородская область, Россия) (48 км)
Погода в Валдае (Новгородская область, Россия) (53 км)
Погода в Демянске (Новгородская область, Россия) (69 км)
Погода в Старой Руссе (Новгородская область, Россия) (76 км)
Погода в Великом Новгороде (Новгородская область, Россия) (79 км)
Погода в Боровичах (Новгородская область, Россия) (82 км)
Погода в Бологом (Тверская область, Россия) (99 км)
Погода в Осташкове (Тверская область, Россия) (134 км)
Погода в Киришах (Ленинградская область, Россия) (134 км)
Погода в Любани (Ленинградская область, Россия) (141 км)

Пояснения к столбцам:

Ветер - указаны скорость ветра в м/с - средняя за 10 мин, порывы в срок и между сроками (в фигурных скобках) и направление, откуда дует ветер: С - северный, СВ - северо-восточный, В - восточный, ЮВ - юго-восточный, Ю - южный, ЮЗ - юго-западный, З - западный, СЗ - северо-западный.
Видимость - горизонтальная дальность видимости в метрах или километрах. При видимости от 1 до 10 км при отсутствии осадков обычно наблюдается дымка, при ухудшении видимости до 1 км и менее - туман. В сухую погоду видимость может ухудшаться дымом, пылью или мглою.
Явления - указаны атмосферные явления, наблюдавшиеся в срок или в последний час перед сроком; фигурными скобками обозначены явления, наблюдавшиеся между сроками (за 1-3 часа до срока); квадратными скобками обозначены град или гололедные отложения с указанием их диаметра в мм.
Облачность - указаны через наклонную черту общая и нижняя облачность в баллах и высота нижней границы облаков в метрах; квадратными скобками обозначены формы облаков: Ci - перистые, Cs - перисто-слоистые, Cc - перисто-кучевые, Ac - высококучевые, As - высокослоистые, Sc - слоисто-кучевые, Ns - слоисто-дождевые, Cu - кучевые, Cb - кучево-дождевые. Подробнее классификацию облаков см. в Атласе облаков (PDF).
T - Температура воздуха - температура, измеренная на высоте 2 м над землей.
Td - Температура точки росы - температура, при понижении до которой содержащийся в воздухе водяной пар достигнет насыщения.
f - Относительная влажность воздуха - влажноcть воздуха, измеренная на высоте 2 м над землей.
Te - Эффективная температура - температура, которую ощущает одетый по сезону человек в тени. Характеристика душности погоды. При расчете учитывается влияние влажности воздуха и скорости ветра на теплоощущения человека.
Tes - Эффективная температура на солнце - температура, которую ощущает человек, с поправкой на солнечный нагрев. Характеристика знойности погоды. Зависит от высоты солнца над горизонтом, облачности и скорости ветра. Ночью, в пасмурную погоду, а также при ветре 12 м/с и более поправка равна нулю.
P - Атмосферное давление - приведенное к уровню моря атмосферное давление.
Po - Атмосферное давление - измеренное на уровне метеостанции атмосферное давление.
Tmin - Минимальная температура - минимум температуры воздуха на высоте 2 м над землей.
Tmax - Максимальная температура - максимум температуры воздуха на высоте 2 м над землей.
R - Количество осадков - Количество выпавших осадков за период времени, мм. При наведении курсора мыши на число - период времени, за который выпало указанное количество осадков.
R24 - Количество осадков - Количество выпавших осадков за 24 часа, мм.
S - Снежный покров - Высота снежного покрова, см. При наведении курсора мыши на число - состояние снежного покрова и степень покрытия местности в баллах.